STARLINK-35496, 66114

Orbit data source: Space-Track

STARLINK-35496, 66114 is a payload satellite owned by SpaceX/Seattle (US) in LEO that was launched on Wed, 22 Oct 2025 UTC via an FALCON 9 launch vehicle from the Air Force Western Test Range (AFWTR). Payload-class satellites include a variety of spacecraft equipped with specific instruments for various scientific and technological missions. These include communications satellites like Starlink; space stations such as the ISS; scientific satellites like the Hubble; Earth observation satellites from companies like Planet Labs, Umbra, and HawkEye 360; GPS; miniature CubeSats for education and research; and military/defense satellites.

Not visible in the next 10 days
Identifier
66114, 2025-237A
Orbit
LEO
Country
Flag of USUS
Related business
Manufacturer
SpaceX/Seattle
Mission
Operational spacecraft
Bus & Motor
STARLINK V2MO, Unknown motor
Mass
575 kg wet, ~530 kg dry
Launch date (UTC)
2025-10-22 (2 weeks ago)
Launch vehicle
FALCON 9
Launch site
Air Force Western Test Range (AFWTR)
Object type
Payload
Rocket body
Debris
Shape & HBR
Unknown shape, 17.7 m
Radar Cross Section
RCS unknown

Expand to show TLE details & history
Last TLE update: 16 hours ago

TLE from 16 hours ago
0 STARLINK-35496
1 66114U 25237A   25311.25001157 -.01906454  00000-0 -15027-1 0  9997
2 66114  53.1596 255.9819 0001562  66.2843  56.8127 15.74106227  3772
Epoch: 2025-11-07T06:00Z
TLE epoch observation values (Epoch: 2025-11-07T06:00:00.999Z)
Latitude
42.23095°
Longitude
-103.26985°
Altitude
350.66 km
Speed
7.704 km/s
True Right ascension
02h 13m 43s
True Declination
42° 02' 58"
Sunlit
Object was in full shadow at epoch
Visualization orbit readout
Latitude
Unknown
Longitude
Unknown
Altitude
Unknown
Speed
Unknown
Apparent Right ascension
Unknown
Apparent Declination
Unknown
Sunlit
N/A
Visualization observer readout
Local Sidereal Time
17:57:30
Azimuth
Unknown
Elevation
Unknown
Doppler factor
Unknown
Orbital elements
Apogee altitude
348.487 km
Perigee altitude
346.386 km
Semi-major axis
6,725.574 km
Eccentricity
0.00016
Inclination
53.1596°
RAAN
255.9819°
Arg. of periapsis
66.2843°
True anomaly
56.82768°
Mean anomaly
56.8127°
Eccentric anomaly
56.82019°
Mean motion
3.93504 °/min
Orbital period
91.49 mins
BSTAR
-0.015027
Loading maneuver chart data...
Computing Atmospheric mass density...
Loading historical data...
Loading historical data...
Loading historical data...
Loading historical data...
Loading historical data...
Loading historical data...
Loading historical data...

Documentation

Showing up to 5 results
|